Location: Newark
(48.4472°N, 1.4892°E)
Time: 20:21:23
(UTC+00:00)

Transit 4A - Pass Details

Date: 28 November 2019
Orbit: 870 x 975 km, 66.8° (Epoch: 06 December)

Event Time Altitude Azimuth Distance (km) Brightness Sun altitude
Exits shadow 05:01:01 48° 268° (W) 1,141 7.9 -22.4°
Maximum altitude 05:01:45 50° 244° (WSW) 1,099 7.9 -22.3°
Drops below altitude 10° 05:07:19 10° 170° (S) 2,509 10.4 -21.3°
Sets 05:09:50 0° 165° (SSE) 3,442 11.2 -20.9°
